sat.trackr.live / text

‹ back to catalog

STARLINK-1724

NORAD 46375 · 2020-062BC

PAYLOAD ACTIVE UNKNOWN

§ Identity

Operator
Country
US
Launch date
2020-09-03
Launch site
AFETR
Launch vehicle
Mass (kg)
RCS (m²)

Purposes: comms

External: N2YO · Heavens-Above · Gunter

§ Orbital elements

Epoch: 2026-05-25T01:21:52.912224Z

Period
91.84 min
Inclination
53.0232°
Eccentricity
0.0004087
Mean motion
15.67951165 rev/d
Perigee alt
362.0 km
Apogee alt
367.5 km
Semi-major
6,742.9 km
B*
7.1433e-4
RAAN
274.3451°
Arg perigee
233.9804°
Mean anomaly
126.0833°
Rev number
31,749

§ Raw data

STARLINK-17241 46375U 20062BC  26145.05686241  .00080747  00000+0  71433-3 0  99912 46375  53.0232 274.3451 0004087 233.9804 126.0833 15.67951165317499

JSON: /api/v1/satellites/46375 · /tle

For live sub-satellite position, see the globe view (requires WebGL).

§ Visibility from observer

Set your observer location to see the next 7 days of passes ≥ 10°. The values pass through the URL so the page stays shareable.

No JS? Fill the form by hand. The geolocation button needs JavaScript.